Weather Roundup
Issued by NWS Springfield, MO

Home | Current Version | Previous Version | Text Only | Print | Product List | Glossary On
Versions: 1 2 3 4 5 6 7 8 9 10 11 12 13 14 15 16 17 18 19 20 21 22 23 24 25 26 27 28 29 30 31 32 33 34 35 36 37 38 39 40 41 42 43 44 45 46 47 48 49 50
000
NZUS99 KSGF 181407
HRRSGF

HOURLY WEATHER
NATIONAL WEATHER SERVICE SPRINGFIELD MO
900 AM CDT SAT APR 18 2015

......SGF CWA......

CITY           SKY/WX    TMP DP  RH WIND       PRES   REMARKS
SPRINGFIELD    CLOUDY    63  58  83 SE10      29.94S
JOPLIN         TSTM      60  59  96 VRB6      29.96R FOG
WEST PLAINS    CLOUDY    64  61  90 E3        29.99S
ROLLA          CLOUDY    61  60  97 SE5       29.97S FOG
OSAGE BEACH    CLOUDY    64  59  82 S9        29.96S
BRANSON        CLOUDY    63  59  88 CALM      29.97R

......SURROUNDING SGF CWA......

CITY           SKY/WX    TMP DP  RH WIND       PRES   REMARKS
CHANUTE        LGT RAIN  61  60  97 W3        29.95S
PARSONS        LGT RAIN  61  61 100 CALM      29.97R
COFFEYVILLE    CLOUDY    61  59  93 SE6       29.96S
EMPORIA        LGT RAIN  59  57  93 E6        29.95R FOG
GROVE OK       RAIN      63  63 100 NW3       29.99R
ROGERS AR      LGT RAIN  63  61  94 W14G20    29.99R
SILOAM SPRINGS CLOUDY    61  54  77 W7        30.01R
HARRISON AR    CLOUDY    61  60  97 SE8       29.97R
NEAR YELLVILLE CLOUDY    61 N/A N/A CALM      29.95S VSB 3/4

......KANSAS AND MISSOURI......

CITY           SKY/WX    TMP DP  RH WIND       PRES   REMARKS
KANSAS CTY INT CLOUDY    63  59  87 S8        29.90F
DOWNTOWN KC    CLOUDY    66  59  78 CALM      29.90F
COLUMBIA       CLOUDY    65  61  87 SE8       29.96F
SEDALIA        CLOUDY    67  60  78 SE9       29.94F
ST JOSEPH      CLOUDY    63  57  81 SE3       29.91S
ST LOUIS       CLOUDY    66  59  78 SE6       30.00F HAZE
SPIRIT OF STL  CLOUDY    65  59  81 CALM      29.98F
KIRKSVILLE     CLOUDY    62  59  90 SE7       29.97S
WICHITA        CLOUDY    62  59  90 S5        29.90F
TOPEKA         TSTM      60  57  89 SW9       29.92S VSB 3/4
OLATHE         TSTM      62  59  90 SW14G22   29.91S

......TENNESSEE......

CITY           SKY/WX    TMP DP  RH WIND       PRES   REMARKS
MEMPHIS        CLOUDY    65  61  87 E8        29.96R
NASHVILLE      CLOUDY    65  61  87 NE3       30.00F

......ARKANSAS.......

CITY           SKY/WX    TMP DP  RH WIND       PRES   REMARKS
FAYETTEVILLE   CLOUDY    64  61  90 W8        29.98R
FT SMITH       LGT RAIN  64  59  83 W8        29.97R
LITTLE ROCK    PTSUNNY   68  62  81 SE6       29.96R

......OKLAHOMA.......

CITY           SKY/WX    TMP DP  RH WIND       PRES   REMARKS
TULSA          CLOUDY    62  59  90 N7        29.91F
PONCA CITY     CLOUDY    63  60  90 S9        29.94R
MCALESTER      MOSUNNY   65  61  87 NE5       29.93R
OKLAHOMA CITY  MOSUNNY   64  55  72 CALM      29.91S

......IOWA............

CITY           SKY/WX    TMP DP  RH WIND       PRES   REMARKS
DES MOINES     CLOUDY    63  56  78 NE13      29.96F
QUAD CITIES    PTSUNNY   60  50  69 E7        30.01S

......ILLINOIS........

CITY           SKY/WX    TMP DP  RH WIND       PRES   REMARKS
QUINCY         CLOUDY    66  58  75 SE6       29.99S
CHICAGO        MOSUNNY   57  40  52 NE21G28   30.07R



USA.gov is the U.S. government's official web portal to all federal, state and local government web resources and services.